,,,PA_Meas_PMT16A,,PR_Meas_QMR101_102,,RH_Meas_QMH101,,SR_Meas_QMS101,,TA_Meas_QMH101,,GenWind,,GenWind,
date,time,status,PA,status,PR,status,RH,status,SR,status,TA,status,DirAvg,status,SpdAvg,
2011-05-31, 00:00:05,VALID,1001.13,VALID,0,VALID,91.2655,VALID,0,VALID,23.6232,VALID,71,VALID,0,
2011-05-31, 00:01:05,VALID,1001.11,VALID,0,VALID,91.3571,VALID,0,VALID,23.6036,VALID,71,VALID,0,
2011-05-31, 00:02:05,VALID,1001.1,VALID,0,VALID,91.4105,VALID,0,VALID,23.5823,VALID,71,VALID,0,
2011-05-31, 00:03:05,VALID,1001.09,VALID,0,VALID,91.4563,VALID,0,VALID,23.5841,VALID,71,VALID,0,
2011-05-31, 00:04:05,VALID,1001.08,VALID,0,VALID,91.5097,VALID,0,VALID,23.5841,VALID,71,VALID,0,
2011-05-31, 00:05:05,VALID,1001.11,VALID,0,VALID,91.586,VALID,0,VALID,23.5646,VALID,71,VALID,0,
2011-05-31, 00:06:05,VALID,1001.06,VALID,0,VALID,91.6012,VALID,0,VALID,23.5451,VALID,71,VALID,0,
2011-05-31, 00:07:05,VALID,1001.09,VALID,0,VALID,91.6775,VALID,0,VALID,23.5451,VALID,71,VALID,0,
2011-05-31, 00:08:05,VALID,1001.09,VALID,0,VALID,91.7843,VALID,0,VALID,23.5433,VALID,71,VALID,0,
2011-05-31, 00:09:05,VALID,1001.08,VALID,0,VALID,91.8454,VALID,0,VALID,23.5451,VALID,71,VALID,0,
2011-05-31, 00:10:05,VALID,1001.08,VALID,0,VALID,91.9369,VALID,0,VALID,23.5451,VALID,71,VALID,0,
2011-05-31, 00:11:05,VALID,1001.08,VALID,0,VALID,92.0132,VALID,0,VALID,23.5043,VALID,71,VALID,0,
2011-05-31, 00:12:05,VALID,1001.09,VALID,0,VALID,92.059,VALID,0,VALID,23.5043,VALID,71,VALID,0,
2011-05-31, 00:13:05,VALID,1001.06,VALID,0,VALID,92.12,VALID,0,VALID,23.5061,VALID,71,VALID,0,
2011-05-31, 00:14:05,VALID,1001.11,VALID,0,VALID,92.1582,VALID,0,VALID,23.5061,VALID,71,VALID,0,
2011-05-31, 00:15:05,VALID,1001.08,VALID,0,VALID,92.2116,VALID,0,VALID,23.4866,VALID,71,VALID,0,
2011-05-31, 00:16:05,VALID,1001.09,VALID,0,VALID,92.2421,VALID,0,VALID,23.4866,VALID,71,VALID,0,
2011-05-31, 00:17:05,VALID,1001.07,VALID,0,VALID,92.3031,VALID,0,VALID,23.4671,VALID,71,VALID,0,
2011-05-31, 00:18:05,VALID,1001.1,VALID,0,VALID,92.3871,VALID,0,VALID,23.4671,VALID,71,VALID,0.550391,
2011-05-31, 00:19:05,VALID,1001.05,VALID,0,VALID,92.4176,VALID,0,VALID,23.4263,VALID,71,VALID,0.335156,
2011-05-31, 00:20:05,VALID,1001.07,VALID,0,VALID,92.471,VALID,0,VALID,23.4475,VALID,71,VALID,0.452344,
2011-05-31, 00:21:05,VALID,1001.05,VALID,0,VALID,92.4786,VALID,0,VALID,23.4475,VALID,71,VALID,0.442578,
2011-05-31, 00:22:05,VALID,1001.05,VALID,0,VALID,92.5015,VALID,0,VALID,23.428,VALID,71,VALID,0.789063,
2011-05-31, 00:23:05,VALID,1001.05,VALID,0,VALID,92.532,VALID,0,VALID,23.428,VALID,58,VALID,0.905469,
2011-05-31, 00:24:05,VALID,1001.04,VALID,0,VALID,92.5778,VALID,0,VALID,23.428,VALID,55,VALID,0.812109,
2011-05-31, 00:25:05,VALID,1001.06,VALID,0,VALID,92.5702,VALID,0,VALID,23.428,VALID,46,VALID,0.722266,
2011-05-31, 00:26:05,VALID,1001.02,VALID,0,VALID,92.5778,VALID,0,VALID,23.4085,VALID,46,VALID,0.515234,
2011-05-31, 00:27:05,VALID,1001.03,VALID,0,VALID,92.6083,VALID,0,VALID,23.4085,VALID,46,VALID,0.449219,
2011-05-31, 00:28:05,VALID,1001.03,VALID,0,VALID,92.6236,VALID,0,VALID,23.4085,VALID,46,VALID,0.39375,
2011-05-31, 00:29:05,VALID,1001.01,VALID,0,VALID,92.6236,VALID,0,VALID,23.3677,VALID,46,VALID,0.441406,
2011-05-31, 00:30:05,VALID,1000.99,VALID,0,VALID,92.6465,VALID,0,VALID,23.389,VALID,46,VALID,0.448047,
2011-05-31, 00:31:05,VALID,1001.02,VALID,0,VALID,92.6694,VALID,0,VALID,23.3695,VALID,46,VALID,0.588281,
2011-05-31, 00:32:05,VALID,1000.97,VALID,0,VALID,92.677,VALID,0,VALID,23.389,VALID,48,VALID,0.576563,
2011-05-31, 00:33:05,VALID,1000.99,VALID,0,VALID,92.6846,VALID,0,VALID,23.389,VALID,52,VALID,0.685938,
2011-05-31, 00:34:05,VALID,1001,VALID,0,VALID,92.677,VALID,0,VALID,23.3695,VALID,52,VALID,0.597266,
2011-05-31, 00:35:05,VALID,1001.02,VALID,0,VALID,92.6465,VALID,0,VALID,23.3908,VALID,52,VALID,0.665234,
2011-05-31, 00:36:05,VALID,1000.95,VALID,0,VALID,92.6388,VALID,0,VALID,23.3482,VALID,52,VALID,0.562891,
2011-05-31, 00:37:05,VALID,1000.96,VALID,0,VALID,92.6236,VALID,0,VALID,23.3695,VALID,52,VALID,0.569922,
2011-05-31, 00:38:05,VALID,1000.98,VALID,0,VALID,92.6312,VALID,0,VALID,23.35,VALID,52,VALID,0.598437,
2011-05-31, 00:39:05,VALID,1000.94,VALID,0,VALID,92.6312,VALID,0,VALID,23.3092,VALID,52,VALID,0.495313,
2011-05-31, 00:40:05,VALID,1000.95,VALID,0,VALID,92.6312,VALID,0,VALID,23.3305,VALID,52,VALID,0.562891,
2011-05-31, 00:41:05,VALID,1000.9,VALID,0,VALID,92.6465,VALID,0,VALID,23.2915,VALID,30,VALID,0.725391,
2011-05-31, 00:42:05,VALID,1000.91,VALID,0,VALID,92.6617,VALID,0,VALID,23.311,VALID,30,VALID,0.659766,
2011-05-31, 00:43:05,VALID,1000.89,VALID,0,VALID,92.6846,VALID,0,VALID,23.311,VALID,30,VALID,0.225,
2011-05-31, 00:44:05,VALID,1000.86,VALID,0,VALID,92.6923,VALID,0,VALID,23.2915,VALID,30,VALID,0,
2011-05-31, 00:45:05,VALID,1000.86,VALID,0,VALID,92.7151,VALID,0,VALID,23.311,VALID,30,VALID,0.000390625,
2011-05-31, 00:46:05,VALID,1000.83,VALID,0,VALID,92.7533,VALID,0,VALID,23.3127,VALID,30,VALID,0.0667969,
2011-05-31, 00:47:05,VALID,1000.82,VALID,0,VALID,92.7838,VALID,0,VALID,23.2915,VALID,30,VALID,0.223438,
2011-05-31, 00:48:05,VALID,1000.82,VALID,0,VALID,92.7914,VALID,0,VALID,23.311,VALID,30,VALID,0.270312,
2011-05-31, 00:49:05,VALID,1000.79,VALID,0,VALID,92.8067,VALID,0,VALID,23.2915,VALID,30,VALID,0.222656,
2011-05-31, 00:50:05,VALID,1000.8,VALID,0,VALID,92.8448,VALID,0,VALID,23.2915,VALID,30,VALID,0.282422,
2011-05-31, 00:51:05,VALID,1000.78,VALID,0,VALID,92.8296,VALID,0,VALID,23.311,VALID,30,VALID,0.43125,
2011-05-31, 00:52:05,VALID,1000.76,VALID,0,VALID,92.8677,VALID,0,VALID,23.311,VALID,30,VALID,0.349609,
2011-05-31, 00:53:05,VALID,1000.75,VALID,0,VALID,92.8983,VALID,0,VALID,23.2915,VALID,30,VALID,0.485938,
2011-05-31, 00:54:05,VALID,1000.75,VALID,0,VALID,92.8983,VALID,0,VALID,23.2915,VALID,30,VALID,0.624609,
2011-05-31, 00:55:05,VALID,1000.74,VALID,0,VALID,92.9288,VALID,0,VALID,23.2719,VALID,53,VALID,0.814844,
2011-05-31, 00:56:05,VALID,1000.72,VALID,0,VALID,92.944,VALID,0,VALID,23.2915,VALID,59,VALID,0.636719,
2011-05-31, 00:57:05,VALID,1000.71,VALID,0,VALID,92.9822,VALID,0,VALID,23.2915,VALID,59,VALID,0.657031,
2011-05-31, 00:58:05,VALID,1000.71,VALID,0,VALID,92.9974,VALID,0,VALID,23.2915,VALID,59,VALID,0.50625,
2011-05-31, 00:59:05,VALID,1000.64,VALID,0,VALID,93.0051,VALID,0,VALID,23.2915,VALID,59,VALID,0.310547,
2011-05-31, 01:00:05,VALID,1000.68,VALID,0,VALID,93.0203,VALID,0,VALID,23.2719,VALID,59,VALID,0,
2011-05-31, 01:01:05,VALID,1000.67,VALID,0,VALID,93.0203,VALID,0,VALID,23.2719,VALID,59,VALID,0,
2011-05-31, 01:02:05,VALID,1000.66,VALID,0,VALID,93.0432,VALID,0,VALID,23.2524,VALID,59,VALID,0,
2011-05-31, 01:03:05,VALID,1000.64,VALID,0,VALID,93.0203,VALID,0,VALID,23.2329,VALID,59,VALID,0,
2011-05-31, 01:04:05,VALID,1000.61,VALID,0,VALID,93.0356,VALID,0,VALID,23.2524,VALID,59,VALID,0,
2011-05-31, 01:05:05,VALID,1000.63,VALID,0,VALID,93.0203,VALID,0,VALID,23.2329,VALID,59,VALID,0,
2011-05-31, 01:06:05,VALID,1000.64,VALID,0,VALID,93.0356,VALID,0,VALID,23.2524,VALID,59,VALID,0,
2011-05-31, 01:07:05,VALID,1000.6,VALID,0,VALID,93.028,VALID,0,VALID,23.2329,VALID,59,VALID,0,
2011-05-31, 01:08:05,VALID,1000.6,VALID,0,VALID,93.028,VALID,0,VALID,23.2329,VALID,59,VALID,0.175,
2011-05-31, 01:09:05,VALID,1000.61,VALID,0,VALID,93.0203,VALID,0,VALID,23.2524,VALID,59,VALID,0.347656,
2011-05-31, 01:10:05,VALID,1000.6,VALID,0,VALID,93.0356,VALID,0,VALID,23.2524,VALID,59,VALID,0.308984,
2011-05-31, 01:11:05,VALID,1000.57,VALID,0,VALID,93.028,VALID,0,VALID,23.2932,VALID,59,VALID,0,
2011-05-31, 01:12:05,VALID,1000.58,VALID,0,VALID,92.9974,VALID,0,VALID,23.2719,VALID,59,VALID,0,
2011-05-31, 01:13:04,VALID,1000.58,VALID,0,VALID,92.9898,VALID,0,VALID,23.2915,VALID,59,VALID,0,
2011-05-31, 01:14:04,VALID,1000.59,VALID,0,VALID,92.9745,VALID,0,VALID,23.2915,VALID,59,VALID,0,
2011-05-31, 01:15:04,VALID,1000.59,VALID,0,VALID,92.9669,VALID,0,VALID,23.311,VALID,59,VALID,0,
2011-05-31, 01:16:04,VALID,1000.58,VALID,0,VALID,92.9517,VALID,0,VALID,23.2915,VALID,59,VALID,0,
2011-05-31, 01:17:04,VALID,1000.58,VALID,0,VALID,92.9211,VALID,0,VALID,23.2915,VALID,59,VALID,0,
2011-05-31, 01:18:04,VALID,1000.56,VALID,0,VALID,92.9059,VALID,0,VALID,23.311,VALID,59,VALID,0,
2011-05-31, 01:19:04,VALID,1000.52,VALID,0,VALID,92.9135,VALID,0,VALID,23.35,VALID,59,VALID,0.414844,
2011-05-31, 01:20:04,VALID,1000.5,VALID,0,VALID,92.9135,VALID,0,VALID,23.3695,VALID,359,VALID,0.520703,
2011-05-31, 01:21:04,VALID,1000.5,VALID,0,VALID,92.9211,VALID,0,VALID,23.3695,VALID,359,VALID,0.421094,
2011-05-31, 01:22:04,VALID,1000.47,VALID,0,VALID,92.9059,VALID,0,VALID,23.3695,VALID,359,VALID,0.298047,
2011-05-31, 01:23:04,VALID,1000.5,VALID,0,VALID,92.9059,VALID,0,VALID,23.3695,VALID,359,VALID,0.231641,
2011-05-31, 01:24:04,VALID,1000.46,VALID,0,VALID,92.9059,VALID,0,VALID,23.3695,VALID,359,VALID,0.247266,
2011-05-31, 01:25:04,VALID,1000.46,VALID,0,VALID,92.8906,VALID,0,VALID,23.389,VALID,359,VALID,0.197656,
2011-05-31, 01:26:04,VALID,1000.47,VALID,0,VALID,92.9059,VALID,0,VALID,23.389,VALID,359,VALID,0.0796875,
2011-05-31, 01:27:04,VALID,1000.45,VALID,0,VALID,92.8677,VALID,0,VALID,23.4085,VALID,359,VALID,0,
2011-05-31, 01:28:04,VALID,1000.44,VALID,0,VALID,92.8372,VALID,0,VALID,23.389,VALID,359,VALID,0.0570313,
2011-05-31, 01:29:04,VALID,1000.43,VALID,0,VALID,92.8448,VALID,0,VALID,23.4085,VALID,359,VALID,0.0835937,
2011-05-31, 01:30:04,VALID,1000.45,VALID,0,VALID,92.8296,VALID,0,VALID,23.389,VALID,359,VALID,0,
2011-05-31, 01:31:04,VALID,1000.45,VALID,0,VALID,92.8372,VALID,0,VALID,23.389,VALID,359,VALID,0,
2011-05-31, 01:32:04,VALID,1000.42,VALID,0,VALID,92.8296,VALID,0,VALID,23.4085,VALID,359,VALID,0,
2011-05-31, 01:33:04,VALID,1000.41,VALID,0,VALID,92.8372,VALID,0,VALID,23.4085,VALID,243,VALID,0.483203,
2011-05-31, 01:34:04,VALID,1000.41,VALID,0,VALID,92.8372,VALID,0,VALID,23.4475,VALID,213,VALID,0.654688,
2011-05-31, 01:35:04,VALID,1000.42,VALID,0,VALID,92.8372,VALID,0,VALID,23.5256,VALID,208,VALID,0.722656,
2011-05-31, 01:36:04,VALID,1000.41,VALID,0,VALID,92.7914,VALID,0,VALID,23.5841,VALID,206,VALID,0.436328,
2011-05-31, 01:37:04,VALID,1000.41,VALID,0,VALID,92.7228,VALID,0,VALID,23.6019,VALID,206,VALID,0.178906,
2011-05-31, 01:38:04,VALID,1000.36,VALID,0,VALID,92.6465,VALID,0,VALID,23.6036,VALID,206,VALID,0.458594,
2011-05-31, 01:39:04,VALID,1000.36,VALID,0,VALID,92.532,VALID,0,VALID,23.5841,VALID,206,VALID,0.310547,
2011-05-31, 01:40:04,VALID,1000.36,VALID,0,VALID,92.4405,VALID,0,VALID,23.5433,VALID,206,VALID,0.497266,
2011-05-31, 01:41:04,VALID,1000.36,VALID,0,VALID,92.3871,VALID,0,VALID,23.5433,VALID,206,VALID,0.477344,
2011-05-31, 01:42:04,VALID,1000.36,VALID,0,VALID,92.3642,VALID,0,VALID,23.5646,VALID,206,VALID,0,
2011-05-31, 01:43:04,VALID,1000.32,VALID,0,VALID,92.3031,VALID,0,VALID,23.5451,VALID,206,VALID,0,
2011-05-31, 01:44:04,VALID,1000.34,VALID,0,VALID,92.2803,VALID,0,VALID,23.5451,VALID,206,VALID,0,
2011-05-31, 01:45:04,VALID,1000.32,VALID,0,VALID,92.2574,VALID,0,VALID,23.5256,VALID,206,VALID,0,
2011-05-31, 01:46:04,VALID,1000.32,VALID,0,VALID,92.2421,VALID,0,VALID,23.5061,VALID,206,VALID,0,
2011-05-31, 01:47:04,VALID,1000.29,VALID,0,VALID,92.2497,VALID,0,VALID,23.5061,VALID,206,VALID,0,
2011-05-31, 01:48:04,VALID,1000.29,VALID,0,VALID,92.265,VALID,0,VALID,23.5061,VALID,206,VALID,0,
2011-05-31, 01:49:04,VALID,1000.29,VALID,0,VALID,92.265,VALID,0,VALID,23.4671,VALID,158,VALID,0,
2011-05-31, 01:50:04,VALID,1000.26,VALID,0,VALID,92.2879,VALID,0,VALID,23.428,VALID,158,VALID,0,
2011-05-31, 01:51:04,VALID,1000.24,VALID,0,VALID,92.3184,VALID,0,VALID,23.4085,VALID,158,VALID,0,
2011-05-31, 01:52:04,VALID,1000.2,VALID,0,VALID,92.3718,VALID,0,VALID,23.389,VALID,158,VALID,0,
2011-05-31, 01:53:04,VALID,1000.16,VALID,0,VALID,92.4252,VALID,0,VALID,23.389,VALID,158,VALID,0,
2011-05-31, 01:54:04,VALID,1000.15,VALID,0,VALID,92.4786,VALID,0,VALID,23.389,VALID,158,VALID,0,
2011-05-31, 01:55:04,VALID,1000.16,VALID,0,VALID,92.5168,VALID,0,VALID,23.389,VALID,158,VALID,0,
2011-05-31, 01:56:04,VALID,1000.12,VALID,0,VALID,92.5397,VALID,0,VALID,23.4085,VALID,158,VALID,0,
2011-05-31, 01:57:04,VALID,1000.11,VALID,0,VALID,92.5931,VALID,0,VALID,23.3872,VALID,158,VALID,0,
2011-05-31, 01:58:04,VALID,1000.1,VALID,0,VALID,92.6236,VALID,0,VALID,23.428,VALID,158,VALID,0,
2011-05-31, 01:59:04,VALID,1000.1,VALID,0,VALID,92.6465,VALID,0,VALID,23.428,VALID,158,VALID,0,
2011-05-31, 02:00:04,VALID,1000.1,VALID,0,VALID,92.6694,VALID,0,VALID,23.428,VALID,158,VALID,0,
2011-05-31, 02:01:04,VALID,1000.09,VALID,0,VALID,92.677,VALID,0,VALID,23.4475,VALID,158,VALID,0,
2011-05-31, 02:02:04,VALID,1000.09,VALID,0,VALID,92.677,VALID,0,VALID,23.4671,VALID,158,VALID,0.0144531,
2011-05-31, 02:03:04,VALID,1000.1,VALID,0,VALID,92.7075,VALID,0,VALID,23.4671,VALID,158,VALID,0.263672,
2011-05-31, 02:04:04,VALID,1000.05,VALID,0,VALID,92.6846,VALID,0,VALID,23.4866,VALID,158,VALID,0.270312,
2011-05-31, 02:05:04,VALID,1000.05,VALID,0,VALID,92.6694,VALID,0,VALID,23.5061,VALID,158,VALID,0.078125,
2011-05-31, 02:06:04,VALID,1000.05,VALID,0,VALID,92.6465,VALID,0,VALID,23.5256,VALID,159,VALID,0.580078,
2011-05-31, 02:07:04,VALID,1000.08,VALID,0,VALID,92.5778,VALID,0,VALID,23.5451,VALID,164,VALID,0.567969,
2011-05-31, 02:08:04,VALID,1000.03,VALID,0,VALID,92.5091,VALID,0,VALID,23.6232,VALID,170,VALID,0.553906,
2011-05-31, 02:09:04,VALID,1000.02,VALID,0,VALID,92.3642,VALID,0,VALID,23.6427,VALID,170,VALID,0.402734,
2011-05-31, 02:10:04,VALID,1000,VALID,0,VALID,92.1582,VALID,0,VALID,23.6817,VALID,170,VALID,0.624219,
2011-05-31, 02:11:04,VALID,999.981,VALID,0,VALID,91.8683,VALID,0,VALID,23.7012,VALID,170,VALID,0.594531,
2011-05-31, 02:12:04,VALID,1000,VALID,0,VALID,91.6317,VALID,0,VALID,23.7402,VALID,170,VALID,0.369922,
2011-05-31, 02:13:04,VALID,999.96,VALID,0,VALID,91.4257,VALID,0,VALID,23.7597,VALID,169,VALID,0.607813,
2011-05-31, 02:14:04,VALID,999.949,VALID,0,VALID,91.2503,VALID,0,VALID,23.7597,VALID,152,VALID,0.651563,
2011-05-31, 02:15:04,VALID,999.95,VALID,0,VALID,91.1892,VALID,0,VALID,23.7597,VALID,112,VALID,0.788672,
2011-05-31, 02:16:04,VALID,999.907,VALID,0,VALID,91.1282,VALID,0,VALID,23.7402,VALID,112,VALID,0.798437,
2011-05-31, 02:17:04,VALID,999.901,VALID,0,VALID,91.1511,VALID,0,VALID,23.7207,VALID,112,VALID,0.409375,
2011-05-31, 02:18:04,VALID,999.863,VALID,0,VALID,91.1663,VALID,0,VALID,23.7402,VALID,112,VALID,0.515234,
2011-05-31, 02:19:04,VALID,999.875,VALID,0,VALID,91.174,VALID,0,VALID,23.7402,VALID,112,VALID,0.595703,
2011-05-31, 02:20:04,VALID,999.863,VALID,0,VALID,91.2426,VALID,0,VALID,23.7207,VALID,112,VALID,0.66875,
2011-05-31, 02:21:04,VALID,999.854,VALID,0,VALID,91.3266,VALID,0,VALID,23.7012,VALID,112,VALID,0.582422,
2011-05-31, 02:22:04,VALID,999.878,VALID,0,VALID,91.4105,VALID,0,VALID,23.7207,VALID,68,VALID,0.957812,
2011-05-31, 02:23:04,VALID,999.871,VALID,0,VALID,91.441,VALID,0,VALID,23.6622,VALID,56,VALID,1.21641,
2011-05-31, 02:24:04,VALID,999.866,VALID,0,VALID,91.502,VALID,0,VALID,23.6445,VALID,51,VALID,1.13086,
2011-05-31, 02:25:04,VALID,999.884,VALID,0,VALID,91.6012,VALID,0,VALID,23.5841,VALID,50,VALID,1.10859,
2011-05-31, 02:26:04,VALID,999.873,VALID,0,VALID,91.7233,VALID,0,VALID,23.5451,VALID,49,VALID,1.19727,
2011-05-31, 02:27:04,VALID,999.882,VALID,0,VALID,91.8225,VALID,0,VALID,23.5274,VALID,58,VALID,0.987109,
2011-05-31, 02:28:04,VALID,999.865,VALID,0,VALID,91.9217,VALID,0,VALID,23.4884,VALID,57,VALID,0.980078,
2011-05-31, 02:29:04,VALID,999.864,VALID,0,VALID,92.0056,VALID,0,VALID,23.4493,VALID,58,VALID,0.878906,
2011-05-31, 02:30:04,VALID,999.844,VALID,0,VALID,92.0819,VALID,0,VALID,23.4085,VALID,58,VALID,0.681641,
2011-05-31, 02:31:04,VALID,999.818,VALID,0,VALID,92.1582,VALID,0,VALID,23.3695,VALID,58,VALID,0.496875,
2011-05-31, 02:32:04,VALID,999.837,VALID,0,VALID,92.2192,VALID,0,VALID,23.35,VALID,58,VALID,0.453516,
2011-05-31, 02:33:04,VALID,999.809,VALID,0,VALID,92.2574,VALID,0,VALID,23.3305,VALID,58,VALID,0.441406,
2011-05-31, 02:34:04,VALID,999.79,VALID,0,VALID,92.3184,VALID,0,VALID,23.311,VALID,56,VALID,0.546484,
2011-05-31, 02:35:04,VALID,999.767,VALID,0,VALID,92.3489,VALID,0,VALID,23.2915,VALID,22,VALID,0.555859,
2011-05-31, 02:36:04,VALID,999.753,VALID,0,VALID,92.4023,VALID,0,VALID,23.2737,VALID,11,VALID,0.453906,
2011-05-31, 02:37:04,VALID,999.724,VALID,0,VALID,92.4328,VALID,0,VALID,23.2524,VALID,11,VALID,0.501172,
2011-05-31, 02:38:04,VALID,999.729,VALID,0,VALID,92.4863,VALID,0,VALID,23.2542,VALID,11,VALID,0.502734,
2011-05-31, 02:39:04,VALID,999.736,VALID,0,VALID,92.532,VALID,0,VALID,23.2542,VALID,11,VALID,0.396484,
2011-05-31, 02:40:04,VALID,999.707,VALID,0,VALID,92.5854,VALID,0,VALID,23.2134,VALID,11,VALID,0.655859,
2011-05-31, 02:41:04,VALID,999.719,VALID,0,VALID,92.6312,VALID,0,VALID,23.2134,VALID,11,VALID,0.526172,
2011-05-31, 02:42:04,VALID,999.723,VALID,0,VALID,92.6923,VALID,0,VALID,23.2347,VALID,11,VALID,0.532031,
2011-05-31, 02:43:04,VALID,999.687,VALID,0,VALID,92.6999,VALID,0,VALID,23.2134,VALID,11,VALID,0.560938,
2011-05-31, 02:44:04,VALID,999.704,VALID,0,VALID,92.7304,VALID,0,VALID,23.2134,VALID,11,VALID,0.475781,
2011-05-31, 02:45:04,VALID,999.701,VALID,0,VALID,92.7609,VALID,0,VALID,23.2134,VALID,11,VALID,0.463672,
2011-05-31, 02:46:04,VALID,999.745,VALID,0,VALID,92.8067,VALID,0,VALID,23.1939,VALID,17,VALID,0.757031,
2011-05-31, 02:47:04,VALID,999.718,VALID,0,VALID,92.822,VALID,0,VALID,23.1939,VALID,23,VALID,0.702734,
2011-05-31, 02:48:04,VALID,999.732,VALID,0,VALID,92.8372,VALID,0,VALID,23.1744,VALID,39,VALID,1.19844,
2011-05-31, 02:49:04,VALID,999.678,VALID,0,VALID,92.8525,VALID,0,VALID,23.1549,VALID,39,VALID,1.0668,
2011-05-31, 02:50:04,VALID,999.688,VALID,0,VALID,92.8677,VALID,0,VALID,23.1159,VALID,40,VALID,1.01563,
2011-05-31, 02:51:04,VALID,999.682,VALID,0,VALID,92.8677,VALID,0,VALID,23.1159,VALID,39,VALID,0.795703,
2011-05-31, 02:52:04,VALID,999.683,VALID,0,VALID,92.8677,VALID,0,VALID,23.0769,VALID,37,VALID,0.692969,
2011-05-31, 02:53:04,VALID,999.643,VALID,0,VALID,92.8754,VALID,0,VALID,23.0361,VALID,37,VALID,0.942969,
2011-05-31, 02:54:04,VALID,999.628,VALID,0,VALID,92.883,VALID,0,VALID,23.0573,VALID,37,VALID,0.708594,
2011-05-31, 02:55:04,VALID,999.617,VALID,0,VALID,92.8983,VALID,0,VALID,23.0183,VALID,37,VALID,0.685547,
2011-05-31, 02:56:04,VALID,999.597,VALID,0,VALID,92.9059,VALID,0,VALID,23.0183,VALID,37,VALID,0.666797,
2011-05-31, 02:57:04,VALID,999.609,VALID,0,VALID,92.9211,VALID,0,VALID,22.9776,VALID,37,VALID,0.65,
2011-05-31, 02:58:04,VALID,999.595,VALID,0,VALID,92.9059,VALID,0,VALID,22.9598,VALID,37,VALID,0.641016,
2011-05-31, 02:59:04,VALID,999.602,VALID,0,VALID,92.9059,VALID,0,VALID,22.9403,VALID,37,VALID,0.642578,
2011-05-31, 03:00:04,VALID,999.631,VALID,0,VALID,92.9211,VALID,0,VALID,22.9208,VALID,37,VALID,0.534375,
2011-05-31, 03:01:04,VALID,999.639,VALID,0,VALID,92.9364,VALID,0,VALID,22.88,VALID,45,VALID,0.687891,
2011-05-31, 03:02:04,VALID,999.637,VALID,0,VALID,92.9669,VALID,0,VALID,22.88,VALID,45,VALID,0.480859,
2011-05-31, 03:03:04,VALID,999.677,VALID,0,VALID,92.9898,VALID,0,VALID,22.88,VALID,65,VALID,1.01602,
2011-05-31, 03:04:04,VALID,999.715,VALID,0,VALID,93.0356,VALID,0,VALID,22.8995,VALID,63,VALID,0.840234,
2011-05-31, 03:05:04,VALID,999.695,VALID,0,VALID,93.0203,VALID,0,VALID,22.8995,VALID,73,VALID,0.76875,
2011-05-31, 03:06:04,VALID,999.688,VALID,0,VALID,93.0661,VALID,0,VALID,22.88,VALID,78,VALID,1,
2011-05-31, 03:07:04,VALID,999.697,VALID,0,VALID,93.0737,VALID,0,VALID,22.9013,VALID,84,VALID,0.901953,
2011-05-31, 03:08:04,VALID,999.666,VALID,0,VALID,93.1043,VALID,0,VALID,22.9208,VALID,85,VALID,0.776953,
2011-05-31, 03:09:04,VALID,999.679,VALID,0,VALID,93.1119,VALID,0,VALID,22.9403,VALID,103,VALID,0.844531,
2011-05-31, 03:10:04,VALID,999.645,VALID,0,VALID,93.1424,VALID,0,VALID,22.9793,VALID,104,VALID,0.703125,
2011-05-31, 03:11:04,VALID,999.64,VALID,0,VALID,93.1729,VALID,0,VALID,23.0183,VALID,104,VALID,0.679688,
2011-05-31, 03:12:04,VALID,999.604,VALID,0,VALID,93.1958,VALID,0,VALID,22.9776,VALID,104,VALID,0.567187,
2011-05-31, 03:13:04,VALID,999.578,VALID,0,VALID,93.2111,VALID,0,VALID,22.9971,VALID,104,VALID,0.4125,
2011-05-31, 03:14:04,VALID,999.582,VALID,0,VALID,93.2263,VALID,0.112286,VALID,23.0183,VALID,104,VALID,0.217969,
2011-05-31, 03:15:04,VALID,999.561,VALID,0,VALID,93.2263,VALID,0,VALID,23.0183,VALID,104,VALID,0.149609,
2011-05-31, 03:16:04,VALID,999.557,VALID,0,VALID,93.2263,VALID,0,VALID,22.9581,VALID,104,VALID,0,
2011-05-31, 03:17:04,VALID,999.542,VALID,0,VALID,93.2263,VALID,0,VALID,22.9598,VALID,104,VALID,0.00078125,
2011-05-31, 03:18:04,VALID,999.565,VALID,0,VALID,93.2111,VALID,0,VALID,22.9208,VALID,104,VALID,0.162891,
2011-05-31, 03:19:04,VALID,999.545,VALID,0,VALID,93.2111,VALID,0,VALID,22.9208,VALID,104,VALID,0.0308594,
2011-05-31, 03:20:04,VALID,999.548,VALID,0,VALID,93.2034,VALID,0,VALID,22.8995,VALID,104,VALID,0,
2011-05-31, 03:21:04,VALID,999.526,VALID,0,VALID,93.2111,VALID,0,VALID,22.8995,VALID,104,VALID,0,
2011-05-31, 03:22:04,VALID,999.518,VALID,0,VALID,93.2187,VALID,0,VALID,22.9208,VALID,104,VALID,0,
2011-05-31, 03:23:04,VALID,999.514,VALID,0,VALID,93.2492,VALID,0,VALID,22.9208,VALID,104,VALID,0,
2011-05-31, 03:24:04,VALID,999.538,VALID,0,VALID,93.2492,VALID,0,VALID,22.9013,VALID,104,VALID,0,
2011-05-31, 03:25:04,VALID,999.545,VALID,0,VALID,93.2568,VALID,0,VALID,22.8818,VALID,104,VALID,0.16875,
2011-05-31, 03:26:04,VALID,999.528,VALID,0,VALID,93.2721,VALID,0,VALID,22.9208,VALID,104,VALID,0.150781,
2011-05-31, 03:27:04,VALID,999.5,VALID,0,VALID,93.3103,VALID,0,VALID,22.9403,VALID,104,VALID,0.308594,
2011-05-31, 03:28:04,VALID,999.522,VALID,0,VALID,93.3179,VALID,0,VALID,22.9208,VALID,104,VALID,0.467969,
2011-05-31, 03:29:04,VALID,999.5,VALID,0,VALID,93.3179,VALID,0,VALID,22.9208,VALID,104,VALID,0.2875,
2011-05-31, 03:30:04,VALID,999.512,VALID,0,VALID,93.3408,VALID,0,VALID,22.9208,VALID,104,VALID,0.210156,
2011-05-31, 03:31:04,VALID,999.488,VALID,0,VALID,93.3179,VALID,0,VALID,22.9403,VALID,104,VALID,0.342969,
2011-05-31, 03:32:04,VALID,999.487,VALID,0,VALID,93.3179,VALID,0,VALID,22.8995,VALID,104,VALID,0.320313,
2011-05-31, 03:33:04,VALID,999.483,VALID,0,VALID,93.3179,VALID,0,VALID,22.9208,VALID,104,VALID,0.323828,
2011-05-31, 03:34:04,VALID,999.506,VALID,0,VALID,93.3179,VALID,0,VALID,22.9013,VALID,104,VALID,0.453516,
2011-05-31, 03:35:04,VALID,999.487,VALID,0,VALID,93.3179,VALID,0,VALID,22.9013,VALID,104,VALID,0.40625,
2011-05-31, 03:36:04,VALID,999.478,VALID,0,VALID,93.3103,VALID,0,VALID,22.8818,VALID,104,VALID,0.297266,
2011-05-31, 03:37:04,VALID,999.49,VALID,0,VALID,93.2874,VALID,0,VALID,22.8427,VALID,104,VALID,0,
2011-05-31, 03:38:04,VALID,999.452,VALID,0,VALID,93.2874,VALID,0,VALID,22.7825,VALID,104,VALID,0,
2011-05-31, 03:39:04,VALID,999.487,VALID,0,VALID,93.2568,VALID,0,VALID,22.7842,VALID,104,VALID,0,
2011-05-31, 03:40:04,VALID,999.449,VALID,0,VALID,93.2492,VALID,0,VALID,22.7452,VALID,104,VALID,0,
2011-05-31, 03:41:04,VALID,999.463,VALID,0,VALID,93.2492,VALID,0,VALID,22.7647,VALID,104,VALID,0,
2011-05-31, 03:42:04,VALID,999.463,VALID,0,VALID,93.234,VALID,0,VALID,22.7647,VALID,104,VALID,0,
2011-05-31, 03:43:04,VALID,999.476,VALID,0,VALID,93.2874,VALID,0,VALID,22.7842,VALID,101,VALID,0.185547,
2011-05-31, 03:44:04,VALID,999.481,VALID,0,VALID,93.295,VALID,0,VALID,22.8232,VALID,99,VALID,0.649609,
2011-05-31, 03:45:04,VALID,999.451,VALID,0,VALID,93.3026,VALID,0,VALID,22.786,VALID,56,VALID,0.733594,
2011-05-31, 03:46:04,VALID,999.468,VALID,0,VALID,93.3026,VALID,0,VALID,22.7452,VALID,56,VALID,0.671875,
2011-05-31, 03:47:04,VALID,999.449,VALID,0,VALID,93.295,VALID,0,VALID,22.7452,VALID,56,VALID,0.745703,
2011-05-31, 03:48:04,VALID,999.457,VALID,0,VALID,93.295,VALID,0,VALID,22.6867,VALID,56,VALID,0.742578,
2011-05-31, 03:49:04,VALID,999.463,VALID,0,VALID,93.2721,VALID,0,VALID,22.6282,VALID,56,VALID,0.684375,
2011-05-31, 03:50:04,VALID,999.455,VALID,0,VALID,93.2721,VALID,0,VALID,22.6087,VALID,56,VALID,0.725781,